CW3065 Weather Reports


time (UTC)temp
C
wind
direction
speed
KPH
gust
KPH
rain 1hr
cm
rain 24hr
cm
rain mn
cm
humidity
%
barometer
mb
20260510203505 14 96 11.3 19.3 0.00 0.25 0.10 53 1013.2
20260510203005 15 126 12.9 22.5 0.00 0.25 0.10 50 1013.4
20260510202504 15 68 4.8 19.3 0.00 0.25 0.10 47 1013.2
20260510202004 15 36 8.0 19.3 0.00 0.25 0.10 51 1013.1
20260510201505 14 30 4.8 16.1 0.00 0.25 0.10 53 1013.3
20260510201004 14 102 11.3 19.3 0.00 0.25 0.10 53 1013.4
20260510200504 15 113 14.5 24.1 0.00 0.25 0.10 54 1013.3
20260510200005 15 26 11.3 22.5 0.00 0.25 0.10 51 1013.3
20260510195504 15 44 9.7 20.9 0.00 0.25 0.10 49 1013.4
20260510194504 14 51 8.0 24.1 0.00 0.25 0.10 55 1013.3
20260510194004 14 98 9.7 20.9 0.00 0.25 0.10 57 1013.2
20260510193504 15 88 11.3 19.3 0.00 0.25 0.10 53 1013.1
20260510192504 14 86 11.3 22.5 0.00 0.25 0.10 53 1013.2
20260510191005 14 49 14.5 22.5 0.00 0.25 0.10 56 1013.3
20260510190504 13 119 9.7 22.5 0.00 0.25 0.10 56 1013.3
20260510190005 13 91 12.9 20.9 0.00 0.25 0.10 55 1013.4
20260510185505 13 104 14.5 25.7 0.00 0.25 0.10 54 1013.4
20260510184505 14 84 14.5 25.7 0.00 0.25 0.10 52 1013.4
20260510184004 14 28 16.1 24.1 0.00 0.25 0.10 53 1013.4
20260510183504 13 28 14.5 20.9 0.00 0.25 0.10 54 1013.6
20260510183004 14 60 12.9 27.4 0.00 0.25 0.10 53 1013.5
20260510182504 13 27 9.7 20.9 0.00 0.25 0.10 55 1013.7
20260510182004 13 89 9.7 22.5 0.00 0.25 0.10 52 1013.7
20260510181505 14 67 8.0 19.3 0.00 0.25 0.10 48 1013.7
20260510180504 14 33 8.0 19.3 0.00 0.25 0.10 51 1013.8
20260510180004 13 30 8.0 19.3 0.00 0.25 0.10 51 1013.7
20260510175504 13 33 14.5 20.9 0.00 0.25 0.10 50 1013.8
20260510175004 13 99 9.7 22.5 0.00 0.25 0.10 50 1013.8
20260510174504 13 97 11.3 22.5 0.00 0.25 0.10 52 1013.8
20260510174004 13 103 11.3 19.3 0.00 0.25 0.10 52 1013.8
20260510173005 12 51 9.7 19.3 0.00 0.25 0.10 49 1013.9
20260510172004 12 78 9.7 19.3 0.00 0.25 0.10 48 1013.8
20260510171504 12 97 8.0 16.1 0.00 0.25 0.10 51 1013.8
20260510171004 12 100 4.8 11.3 0.00 0.25 0.10 50 1013.9
20260510170504 12 105 4.8 12.9 0.00 0.25 0.10 48 1013.9
20260510170004 12 24 11.3 19.3 0.00 0.25 0.10 52 1013.9
20260510165504 11 102 4.8 11.3 0.00 0.25 0.10 51 1014.0
20260510165004 11 134 8.0 14.5 0.00 0.25 0.10 47 1014.0
20260510164504 11 104 8.0 19.3 0.00 0.25 0.10 50 1014.0
20260510164004 11 130 6.4 11.3 0.00 0.25 0.10 48 1014.0
20260510163505 11 79 1.6 8.0 0.00 0.25 0.10 51 1014.0
20260510163005 11 106 1.6 9.7 0.00 0.25 0.10 48 1014.0
20260510162504 11 46 1.6 9.7 0.00 0.25 0.10 51 1014.0
20260510162004 11 128 4.8 9.7 0.00 0.25 0.10 50 1014.0
20260510161504 11 90 8.0 19.3 0.00 0.25 0.10 51 1014.0
20260510161009 10 99 9.7 14.5 0.00 0.25 0.10 54 1013.9
20260510160504 10 167 6.4 16.1 0.00 0.25 0.10 53 1013.9
20260510160004 10 120 6.4 16.1 0.03 0.25 0.10 52 1013.8
20260510155505 10 136 4.8 8.0 0.03 0.25 0.10 55 1013.6
20260510154004 10 151 3.2 9.7 0.03 0.25 0.10 53 1013.4
20260510153504 10 127 3.2 8.0 0.03 0.25 0.10 55 1013.4
20260510153004 9 146 0.0 4.8 0.03 0.25 0.10 56 1013.4
20260510152504 9 144 3.2 4.8 0.03 0.25 0.10 54 1013.4
20260510152004 9 102 1.6 8.0 0.03 0.25 0.10 57 1013.4
20260510151004 10 151 1.6 4.8 0.03 0.25 0.10 53 1013.4
20260510150504 10 54 0.0 4.8 0.03 0.25 0.10 53 1013.4
20260510150004 9 77 1.6 3.2 0.03 0.25 0.10 54 1013.3
20260510145504 9 76 1.6 3.2 0.00 0.23 0.08 56 1013.3
20260510144504 9 17 0.0 3.2 0.00 0.23 0.08 60 1013.3
20260510144004 8 35 0.0 4.8 0.00 0.23 0.08 65 1013.2
20260510143005 7 23 4.8 8.0 0.00 0.23 0.08 76 1013.3
20260510142504 6 166 0.0 3.2 0.00 0.23 0.08 69 1013.4
20260510141005 6 175 1.6 3.2 0.00 0.23 0.08 74 1013.4
20260510140004 5 176 4.8 4.8 0.00 0.23 0.08 76 1013.4
20260510135505 5 165 3.2 8.0 0.00 0.23 0.08 78 1013.4
20260510135004 5 213 3.2 4.8 0.00 0.23 0.08 79 1013.4
20260510134504 5 223 1.6 4.8 0.00 0.23 0.08 81 1013.4
20260510133504 4 212 1.6 4.8 0.00 0.23 0.08 85 1013.4
20260510133004 4 222 4.8 4.8 0.00 0.23 0.08 87 1013.4
20260510131504 3 215 4.8 8.0 0.00 0.23 0.08 89 1013.5
20260510131004 3 202 4.8 8.0 0.00 0.23 0.08 90 1013.4
20260510130505 2 247 6.4 9.7 0.00 0.23 0.08 91 1013.4
20260510130004 2 222 4.8 4.8 0.00 0.23 0.08 91 1013.3
20260510125504 2 233 4.8 9.7 0.00 0.23 0.08 91 1013.2
20260510125004 2 219 4.8 9.7 0.00 0.23 0.08 91 1013.2
20260510124505 2 220 3.2 4.8 0.00 0.23 0.08 92 1013.2
20260510123505 2 228 1.6 4.8 0.00 0.23 0.08 93 1013.3
20260510123004 2 228 1.6 4.8 0.00 0.23 0.08 93 1013.3
20260510122504 2 265 0.0 0.0 0.00 0.23 0.08 93 1013.3
20260510122005 2 265 0.0 3.2 0.00 0.23 0.08 94 1013.3
20260510121504 2 265 3.2 4.8 0.00 0.23 0.08 94 1013.2
20260510120505 2 235 4.8 9.7 0.00 0.23 0.08 94 1013.2
20260510120004 2 243 3.2 4.8 0.00 0.23 0.08 95 1013.2
20260510115504 2 246 4.8 8.0 0.00 0.23 0.08 94 1013.2
20260510115004 2 329 3.2 4.8 0.00 0.23 0.08 94 1012.9
20260510114004 2 5 1.6 4.8 0.00 0.23 0.08 93 1012.8
20260510113505 2 7 0.0 4.8 0.00 0.23 0.08 93 1012.8
20260510113005 2 7 0.0 0.0 0.00 0.23 0.08 93 1012.8
20260510112505 2 7 1.6 3.2 0.00 0.23 0.08 94 1012.8
20260510112004 2 344 3.2 4.8 0.00 0.23 0.08 94 1012.7
20260510111504 2 344 1.6 4.8 0.00 0.23 0.08 94 1012.6
20260510111004 2 344 0.0 0.0 0.00 0.23 0.08 94 1012.6
20260510110504 2 344 0.0 0.0 0.00 0.23 0.08 94 1012.4
20260510110005 2 344 0.0 4.8 0.00 0.23 0.08 94 1012.3
20260510105505 2 344 3.2 4.8 0.00 0.23 0.08 94 1012.2
20260510105004 2 358 0.0 4.8 0.00 0.23 0.08 94 1012.1
20260510104505 2 11 0.0 0.0 0.00 0.23 0.08 94 1012.1
20260510104004 2 11 0.0 0.0 0.00 0.23 0.08 94 1012.1
20260510103005 2 11 0.0 0.0 0.00 0.23 0.08 94 1012.1
20260510101504 2 11 0.0 0.0 0.00 0.23 0.08 93 1012.2
20260510101004 2 338 0.0 3.2 0.00 0.23 0.08 93 1012.2
20260510100505 2 264 0.0 0.0 0.00 0.23 0.08 93 1012.2
20260510100004 2 264 0.0 4.8 0.00 0.23 0.08 93 1012.2
20260510095504 2 264 3.2 4.8 0.00 0.23 0.08 93 1012.1
20260510095005 2 264 3.2 4.8 0.00 0.23 0.08 93 1011.7
20260510094504 2 342 1.6 4.8 0.00 0.23 0.08 93 1011.6
20260510094004 2 342 3.2 4.8 0.00 0.23 0.08 92 1011.6
20260510093504 2 342 3.2 4.8 0.00 0.23 0.08 92 1011.6
20260510093004 2 342 3.2 4.8 0.00 0.23 0.08 91 1011.4
20260510092505 2 58 0.0 0.0 0.00 0.23 0.08 91 1011.4
20260510092004 2 58 0.0 0.0 0.00 0.23 0.08 91 1011.3
20260510091505 3 78 0.0 0.0 0.00 0.23 0.08 91 1011.1
20260510091004 3 84 0.0 0.0 0.00 0.23 0.08 92 1011.0
20260510090504 3 84 0.0 0.0 0.00 0.23 0.08 92 1011.0
20260510090004 3 80 1.6 3.2 0.00 0.23 0.08 92 1011.0
20260510085504 3 354 0.0 0.0 0.00 0.23 0.08 92 1011.0
20260510085004 3 354 0.0 0.0 0.00 0.23 0.08 92 1011.0
20260510084505 3 354 0.0 0.0 0.00 0.23 0.08 92 1011.0
20260510084004 3 354 0.0 0.0 0.00 0.23 0.08 93 1011.0
20260510083504 3 354 1.6 3.2 0.00 0.23 0.08 92 1011.0
20260510083004 3 354 0.0 0.0 0.00 0.23 0.08 92 1011.0
20260510082504 3 354 0.0 0.0 0.00 0.23 0.08 92 1010.9
20260510082004 3 354 0.0 0.0 0.00 0.23 0.08 92 1010.9
20260510081504 3 354 0.0 0.0 0.00 0.23 0.08 92 1010.9
20260510081005 3 354 0.0 0.0 0.00 0.23 0.08 92 1010.9
20260510080504 3 354 0.0 0.0 0.00 0.23 0.08 93 1010.9
20260510080004 3 354 0.0 0.0 0.00 0.23 0.08 92 1010.9
20260510075504 3 354 0.0 3.2 0.00 0.23 0.08 92 1010.9
20260510074504 3 354 1.6 4.8 0.00 0.23 0.08 92 1010.9
20260510074004 3 354 4.8 9.7 0.00 0.23 0.08 92 1010.9
20260510073005 3 81 3.2 8.0 0.00 0.23 0.08 92 1010.8
20260510072004 3 17 9.7 14.5 0.00 0.23 0.08 92 1010.9
20260510070504 3 6 6.4 9.7 0.08 0.23 0.08 92 1011.0
20260510070004 3 27 4.8 9.7 0.08 0.23 0.08 91 1011.0
20260510065504 3 36 4.8 9.7 0.05 0.23 0.08 91 1011.0
20260510065004 3 0 8.0 9.7 0.08 0.23 0.08 91 1011.1
20260510064504 3 13 6.4 11.3 0.10 0.23 0.08 91 1011.1
20260510064004 3 1 4.8 9.7 0.13 0.23 0.08 91 1011.1
20260510063005 3 357 8.0 9.7 0.00 0.23 0.08 90 1011.0
20260510062505 3 9 6.4 9.7 0.00 0.23 0.08 90 1011.0
20260510062004 3 1 6.4 9.7 0.00 0.25 0.08 90 1011.1
20260510061505 3 349 8.0 11.3 0.15 0.23 0.05 89 1011.4
20260510061004 3 348 9.7 14.5 0.13 0.20 0.03 90 1011.4
20260510060505 3 348 9.7 12.9 0.10 0.18 0.00 90 1011.3
20260510060005 3 356 6.4 9.7 0.10 0.18 0.00 89 1011.1
20260510055504 3 52 3.2 4.8 0.10 0.18 0.18 88 1011.0
20260510055004 3 118 3.2 4.8 0.08 0.15 0.15 88 1011.0
20260510054504 3 118 4.8 4.8 0.05 0.13 0.13 87 1011.1
20260510054004 3 107 4.8 8.0 0.03 0.10 0.10 86 1011.4
20260510053505 4 136 4.8 8.0 0.03 0.10 0.10 86 1011.5
20260510053004 4 122 8.0 11.3 0.03 0.08 0.08 86 1011.4
20260510052504 4 138 11.3 12.9 0.03 0.08 0.08 85 1011.2
20260510052005 4 138 9.7 14.5 0.03 0.08 0.08 85 1011.2
20260510051504 4 143 4.8 11.3 0.05 0.08 0.08 85 1011.1
20260510051004 4 135 3.2 9.7 0.05 0.08 0.08 85 1011.1
20260510050505 4 142 9.7 19.3 0.05 0.08 0.08 85 1010.9
20260510050005 5 141 8.0 14.5 0.08 0.08 0.08 85 1010.9
20260510045004 5 128 11.3 19.3 0.08 0.08 0.08 85 1010.6
20260510044005 5 115 6.4 12.9 0.08 0.08 0.08 88 1010.7
20260510043504 5 129 11.3 19.3 0.08 0.08 0.08 87 1010.7
20260510043005 5 128 8.0 11.3 0.05 0.05 0.05 88 1010.6
20260510042504 5 123 6.4 9.7 0.05 0.05 0.05 87 1010.7
20260510042004 5 102 8.0 19.3 0.05 0.05 0.05 86 1010.7
20260510041004 5 117 14.5 22.5 0.03 0.03 0.03 84 1010.7
20260510040505 6 118 12.9 20.9 0.03 0.03 0.03 82 1010.5
20260510040004 6 110 11.3 19.3 0.00 0.00 0.00 81 1010.6
20260510035504 6 119 6.4 11.3 0.00 0.00 0.00 79 1010.6
20260510035005 6 136 8.0 16.1 0.00 0.00 0.00 78 1010.6
20260510034504 6 113 8.0 20.9 0.00 0.00 0.00 76 1010.3
20260510034005 6 95 4.8 14.5 0.00 0.00 0.00 75 1010.1
20260510033505 6 40 4.8 11.3 0.00 0.00 0.00 75 1010.1
20260510033005 6 91 4.8 9.7 0.00 0.00 0.00 73 1009.9
20260510032504 7 90 6.4 11.3 0.00 0.00 0.00 73 1009.7
20260510032004 7 132 4.8 8.0 0.00 0.00 0.00 71 1009.7
20260510031504 7 135 6.4 12.9 0.00 0.00 0.00 71 1009.5
20260510031005 7 116 8.0 14.5 0.00 0.00 0.00 70 1009.1
20260510030005 7 125 14.5 19.3 0.00 0.00 0.00 69 1009.0
20260510025504 7 148 12.9 19.3 0.00 0.00 0.00 68 1009.1
20260510025005 7 129 8.0 16.1 0.00 0.00 0.00 67 1009.3
20260510024504 7 101 14.5 20.9 0.00 0.00 0.00 67 1009.3
20260510024004 7 151 12.9 20.9 0.00 0.00 0.00 67 1008.5
20260510023504 7 118 11.3 19.3 0.00 0.00 0.00 69 1008.1
20260510023004 7 129 12.9 22.5 0.00 0.00 0.00 70 1007.6
20260510022504 7 126 16.1 25.7 0.00 0.00 0.00 72 1007.4
20260510022004 6 141 16.1 27.4 0.00 0.00 0.00 73 1007.0
20260510021504 7 115 11.3 20.9 0.00 0.00 0.00 73 1006.7
20260510021005 7 89 12.9 24.1 0.00 0.00 0.00 72 1006.3
20260510020505 7 87 14.5 22.5 0.00 0.00 0.00 71 1006.2
20260510020005 7 88 19.3 27.4 0.00 0.00 0.00 71 1006.2
20260510015504 7 79 19.3 25.7 0.00 0.00 0.00 70 1006.2
20260510015004 7 89 19.3 29.0 0.00 0.00 0.00 69 1005.9
20260510014504 7 78 19.3 27.4 0.00 0.00 0.00 68 1006.1
20260510014004 7 49 19.3 32.2 0.00 0.00 0.00 67 1006.1
20260510013504 8 71 29.0 40.2 0.00 0.00 0.00 66 1005.5
20260510013005 8 95 25.7 37.0 0.00 0.00 0.00 64 1004.9
20260510012504 9 95 16.1 38.6 0.00 0.00 0.00 62 1005.0
20260510012004 10 56 16.1 24.1 0.00 0.00 0.00 60 1004.9
20260510011504 10 0 19.3 29.0 0.00 0.00 0.00 59 1004.9
20260510011004 10 52 19.3 29.0 0.00 0.00 0.00 57 1004.8
20260510010504 10 80 16.1 29.0 0.00 0.00 0.00 55 1004.6
20260510010004 11 55 14.5 27.4 0.00 0.00 0.00 53 1004.6
20260510005504 11 25 16.1 27.4 0.00 0.00 0.00 52 1004.5
20260510005004 12 16 12.9 22.5 0.00 0.00 0.00 49 1004.6
20260510004504 12 328 4.8 29.0 0.00 0.00 0.00 50 1004.6
20260510004005 12 82 16.1 32.2 0.00 0.00 0.00 49 1004.4
20260510003504 12 86 20.9 32.2 0.00 0.00 0.00 46 1004.3
20260510003004 14 63 16.1 25.7 0.00 0.00 0.00 42 1004.4
20260510002505 16 112 9.7 19.3 0.00 0.00 0.00 37 1004.6
20260510002005 17 2 3.2 16.1 0.00 0.00 0.00 20 1004.3
20260510001504 16 224 11.3 19.3 0.00 0.00 0.00 18 1004.3
20260510001005 16 232 11.3 24.1 0.00 0.00 0.00 18 1004.3
20260510000504 16 260 8.0 25.7 0.00 0.00 0.00 19 1004.3
20260509235504 16 222 16.1 24.1 0.00 0.00 0.00 16 1004.1
20260509235005 17 220 8.0 20.9 0.00 0.00 0.00 18 1004.1
20260509234504 17 253 9.7 27.4 0.00 0.00 0.00 19 1004.2
20260509234004 17 242 14.5 32.2 0.00 0.00 0.00 18 1004.1
20260509233504 17 255 12.9 25.7 0.00 0.00 0.00 17 1004.1
20260509233004 17 251 8.0 25.7 0.00 0.00 0.00 17 1004.0
20260509232504 18 260 14.5 29.0 0.00 0.00 0.00 17 1003.8
20260509232004 19 259 11.3 25.7 0.00 0.00 0.00 16 1003.6
20260509231504 18 287 8.0 20.9 0.00 0.00 0.00 17 1003.6
20260509231004 18 260 9.7 32.2 0.00 0.00 0.00 18 1003.6
20260509230504 18 295 17.7 29.0 0.00 0.00 0.00 17 1003.6
20260509230004 18 235 17.7 29.0 0.00 0.00 0.00 16 1003.6
20260509225504 19 270 4.8 24.1 0.00 0.00 0.00 15 1003.5
20260509225004 19 288 19.3 37.0 0.00 0.00 0.00 16 1003.4
20260509224504 19 304 16.1 35.4 0.00 0.00 0.00 16 1003.2
20260509224005 18 285 16.1 32.2 0.00 0.00 0.00 15 1003.4
20260509223504 18 254 19.3 37.0 0.00 0.00 0.00 17 1003.2
20260509223005 18 257 20.9 35.4 0.00 0.00 0.00 15 1003.0
20260509222504 18 261 17.7 37.0 0.00 0.00 0.00 15 1003.2
20260509222004 18 289 14.5 32.2 0.00 0.00 0.00 15 1003.0
20260509221505 18 248 11.3 25.7 0.00 0.00 0.00 16 1003.0
20260509220504 18 235 9.7 24.1 0.00 0.00 0.00 18 1003.1
20260509220004 18 274 16.1 33.8 0.00 0.00 0.00 18 1003.5
20260509215504 18 255 12.9 35.4 0.00 0.00 0.00 17 1003.6
20260509215004 18 249 19.3 35.4 0.00 0.00 0.00 15 1003.6
20260509214004 18 245 20.9 33.8 0.00 0.00 0.00 17 1003.5
20260509213005 19 230 12.9 22.5 0.00 0.00 0.00 16 1003.5
20260509212504 18 227 9.7 33.8 0.00 0.00 0.00 19 1003.5
20260509212004 18 228 6.4 19.3 0.00 0.00 0.00 17 1003.5
20260509211505 18 182 6.4 29.0 0.00 0.00 0.00 21 1003.6
20260509211004 18 227 14.5 27.4 0.00 0.00 0.00 17 1003.6
20260509210004 18 216 9.7 25.7 0.00 0.00 0.00 14 1003.6
20260509205504 18 269 11.3 27.4 0.00 0.00 0.00 19 1003.7